Regional Weather Roundup
Issued by NWS

Home | Current Version | Previous Version | Graphics & Text | Print | Product List | Glossary On
Versions: 1 2 3 4 5 6 7 8 9 10 11 12 13 14 15 16 17 18 19 20 21 22 23 24 25 26 27 28 29 30 31 32 33 34 35 36 37 38 39 40 41 42 43 44 45 46 47 48 49 50
000
ASUS43 KMKX 051721
RWRWI

WISCONSIN REGIONAL WEATHER ROUNDUP
NATIONAL WEATHER SERVICE MILWAUKEE/SULLIVAN WI
1200 PM CDT THU MAY 05 2016

NOTE: "FAIR" INDICATES FEW OR NO CLOUDS BELOW 12,000 FEET WITH NO
SIGNIFICANT WEATHER AND/OR OBSTRUCTIONS TO VISIBILITY.

WIZ001-002-006>008-014>016-023>028-051800-
NORTHWEST WISCONSIN

CITY           SKY/WX    TMP DP  RH WIND       PRES   REMARKS
SUPERIOR ARPT  MOSUNNY   60  41  48 SW9       29.96R
ASHLAND        SUNNY     66  33  29 SW12      29.97F
HAYWARD        MOSUNNY   63  32  31 SW7       30.00F
SIREN          PTSUNNY   60  31  33 SW12      30.01F
CUMBERLAND     PTSUNNY   59  30  33 SW12      30.03F
RICE LAKE      MOSUNNY   61  30  30 SW9       30.04F
CHETEK         PTSUNNY   61  35  37 SW6       30.03F
LADYSMITH      SUNNY     60  31  33 W8        30.04F
EAU CLAIRE       N/A    N/A N/A N/A MISG        N/A
MENOMONIE      SUNNY     65  35  32 SW5       30.05S
NEW RICHMOND   CLOUDY    57  32  38 SW12      30.04F
OSCEOLA        PTSUNNY   60  35  39 S7        30.06F
$$

WIZ003>005-009-010-017-018-051800-
NORTH CENTRAL WISCONSIN

CITY           SKY/WX    TMP DP  RH WIND       PRES   REMARKS
MANITOWISH WTR SUNNY     58  27  30 CALM      29.99F
ARBOR VITAE    SUNNY     59  28  29 NW9       30.00F
WOODRUFF       SUNNY     59  28  29 NW9       30.00F
RHINELANDER    SUNNY     59  27  29 W7        30.01F
EAGLE RIVER    SUNNY     59  23  24 W6        30.00F
LAND O LAKES   SUNNY     59  24  26 N7        30.00F
PHILLIPS       CLOUDY    58  33  39 SW9       30.01F
TOMAHAWK       SUNNY     60  29  30 W7        30.02F
MEDFORD        SUNNY     56  34  42 W5        30.03F
MERRILL        SUNNY     58  32  38 NW5       30.02F
$$

WIZ029-030-035-036-043>047-051800-
CENTRAL WISCONSIN

CITY           SKY/WX    TMP DP  RH WIND       PRES   REMARKS
WAUSAU         SUNNY     60  32  34 VRB3      30.01F
MOSINEE        SUNNY     57  34  41 CALM      30.04F
MARSHFIELD     SUNNY     59  32  36 VRB6      30.04S
STEVENS POINT  SUNNY     56  33  41 CALM      30.04S
WAUPACA        SUNNY     59  35  41 CALM      30.04F
WAUTOMA        SUNNY     57  37  47 NW3       30.05F
WISC RAPIDS    SUNNY     60  30  32 N7        30.06S
CAMP DOUGLAS   MOSUNNY   59  36  41 VRB6      30.05F
$$

WIZ011>013-019>022-031-037>040-048>050-051800-
NORTHEAST WISCONSIN

CITY           SKY/WX    TMP DP  RH WIND       PRES   REMARKS
ANTIGO         SUNNY     57  30  35 CALM      30.02F
SHAWANO        SUNNY     57  36  44 SE3       30.03F
OCONTO         SUNNY     54  39  56 SE5       30.03F
STURGEON BAY   SUNNY     50  36  57 NW6       30.05F
GREEN BAY      SUNNY     56  40  55 W8        30.03F
MANITOWOC      SUNNY     55  40  56 W10       30.03F
APPLETON       SUNNY     54  36  50 VRB5      30.03F
CLINTONVILLE   SUNNY     55  34  44 NW5       30.03F
OSHKOSH        SUNNY     54  37  52 NW3       30.04S
$$

WIZ032>034-041-042-053>061-051800-
SOUTHWEST WISCONSIN

CITY           SKY/WX    TMP DP  RH WIND       PRES   REMARKS
LA CROSSE      SUNNY     59  36  42 NW3       30.07S
SPARTA         SUNNY     60  32  35 NW7       30.07S
VIROQUA        SUNNY     58  34  40 N3        30.07S
BOSCOBEL       SUNNY     62  37  39 W7        30.06F
PRAIRIE DU CHI SUNNY     59  32  36 N3        30.07F
PLATTEVILLE    SUNNY     58  39  49 N7        30.06F
$$

WIZ056-057-062-063-064-067-068-051800-
SOUTH CENTRAL WISCONSIN

CITY           SKY/WX    TMP DP  RH WIND       PRES   REMARKS
REEDSBURG      SUNNY     57  38  47 NW7       30.05F
BARABOO/DELLS  SUNNY     58  33  39 N6        30.05F
LONE ROCK      SUNNY     59  38  45 NW7       30.06F
MINERAL POINT  SUNNY     59  36  41 N7        30.06S
MADISON        SUNNY     58  39  49 VRB6      30.04F
MIDDLETON      SUNNY     58  37  46 N6        30.05F
WATERTOWN      SUNNY     56  40  56 N7        30.03F
MONROE         SUNNY     55  36  47 N6        30.05S
JANESVILLE     SUNNY     57  37  47 N9        30.03F
$$

WIZ051-052-058>065-066-070>072-051800-
SOUTHEAST WISCONSIN

CITY           SKY/WX    TMP DP  RH WIND       PRES   REMARKS
MILWAUKEE      SUNNY     53  39  59 N12G21    30.04S
WAUKESHA       SUNNY     54  37  54 N6        30.03F
MILWAUKEE/TIMM SUNNY     55  36  47 CALM      30.03F
RACINE         SUNNY     52  39  61 N13       30.05S
BURLINGTON     SUNNY     56  37  50 N6        30.02F
KENOSHA        SUNNY     56  40  55 N12       30.03S
FOND DU LAC    SUNNY     54  38  54 NE8       30.05S
SHEBOYGAN      SUNNY     54  41  61 NE9       30.03F
WEST BEND      SUNNY     55  36  47 NW7       30.02F
JUNEAU         SUNNY     54  38  55 NW7       30.05S
$$

LSZ147-162-051800-
LAKE SUPERIOR

STATION/POSITION TIME  TEMP    WIND        PRES    WAVE
                       AIR SEA DIR/SP/G            HT/PER
                 (UTC) (F)     (DEG/KT/KT) (MB)    (FT/S)
W MID LAKE BUOY  1650   40 37  210/  8/ 10 1015.5F   1
DEVILS ISLAND    1700   49      CALM  /  2 1014.6F
PORT WING        1540   43     310/  8/ 11 1015.2
SAXON HARBOR     1600   60     200/  7/ 14 1015.2F
$$

LMZ867-665-643>646-051800-
LAKE MICHIGAN

STATION/POSITION TIME  TEMP    WIND        PRES    WAVE
                       AIR SEA DIR/SP/G            HT/PER
                 (UTC) (F)     (DEG/KT/KT) (MB)    (FT/S)
CHAMBERS ISLAND  1600   45      50/  3/  4 1017.3F
N MID LAKE BUOY  1650   39 39  280/  6/  8 1016.9S   1/ 3
NORTHPORT PIER   1600   41     320/  8/ 10 1017.3S
ALGOMA LAKESHORE 1615          100/  8/  9   N/A
KEWAUNEE LAKESHO 1700   46      50/  4/  7 1016.3F
SHEBOYGAN LAKESH 1700   42      30/ 10/ 11 1017.9F
PORT WASHINGTON  1640   48      40/ 10/ 12 1017.9S
S MID LAKE BUOY  1650   40 40  360/ 16/ 17 1016.0R   4/ 6
KENOSHA   LAKESH 1700   47      20/ 14/ 15 1016.6F
$$

TC  - TEMPERATURE IN CELSIUS
VSB - VISIBILITY IN STATUTE MILES
WCI - WIND CHILL INDEX
HX  - HEAT INDEX




USA.gov is the U.S. government's official web portal to all federal, state and local government web resources and services.